Starlink 32614

operational
NORAD ID: 62428 Int'l Des: 2024-249 Owner: SPXS Country: US Constellation: starlink
LEOCIRCULAR

Starlink 32614について

説明を読み込み中...

リアルタイム位置

3D地球を読み込み中...

次回通過

高度履歴

Altitude vs Time

uPlot chart will show altitude changes over time

軌道要素

1 62428U 24249V 26033.65319903 .00031046 00000-0 11323-2 0 9999
2 62428 42.9992 159.8640 0001416 282.2072 77.8621 15.27599627 62368
Epoch: Feb 2, 2026 • Age: 23 hours

現在のステータス

高度 483.8 km
速度 7.63 km/s
衛星直下点 27.21°N, 46.19°W
打ち上げ日 Dec 23, 2024
運用期間 1.1 years
タイプ internet

技術仕様

分類 Payload
質量 730.00 kg
乾燥質量 700.00 kg
総質量 730.00 kg
長さ 0.30 m
直径 4.10 m
スパン 29.00 m
形状 Box + pan
製造者 SPXS
バスタイプ Starlink V2M
フェーズステータス In Orbit
所有者/国 SPXS/US

大規模コンステレーション

Loading constellations...